星链-34656 (STARLINK-34656)

导读

STARLINK-34656是美国SpaceX公司星链(Starlink)星座的成员卫星,于2025年7月30日发射入轨。星链项目致力于通过低轨卫星星座,为全球偏远、网络基础设施匮乏地区提供高速低延迟宽带互联网服务,该卫星是SpaceX推进星座组网部署的一环,助力拓展全球卫星互联网覆盖范围,支撑星链服务的稳定运行与能力升级。

Basic Information
目录编号:
65032
目录名称:
STARLINK-34656
国际标识:
2025-161T
轨道中心:
EARTH
卫星名称:
星链-34656
卫星全名:
星链-34656 (STARLINK-34656)
卫星状态:
在轨 (已飞行318 天)
发射日期:
2025-07-30 UTC
国别 :
美国 (US)
星等 :
--
Orbit Information
数据来源 国际轨道数据 AOE轨道数据
星历时间 2026-06-13T04:01:39+0800
23小时前
查看轨道信息
2026-06-12T07:00:00+0800
1天前
查看轨道信息
半长轴 6853.325km 6853.386km
偏心率 0.0001247 0.0001524
轨道倾角 53.158° 53.157°
近地点辐角 61.678° 59.014°
升交点赤经 212.496° 216.569°
平近点角 298.434° 151.981°
近地点 474.333km 474.204km
远地点 476.043km 476.294km
周期 94.105分钟 94.106分钟
每日圈数 15.302093 15.301889
Detailed Information
固有亮度:
5
最大亮度:
2.5
卫星平台:
Starlink V1.0
覆盖范围:
全球
运营商:
太空探索技术公司
运营商所在国:
美国
制造商(研发单位):
太空探索技术公司
制造商所在国:
美国
使用方式:
暂无
Satellite Introduction
Starlink 计划是 SpaceX 推出的全球卫星互联网项目,通过发射低轨道卫星,为全球尤其是偏远地区提供高速、低延迟的互联网服务。自 2019 年起,Starlink 已部署数千颗卫星,旨在缩小全球数字鸿沟,推动互联网普及。该项目还为军事、航空等行业提供通信支持,带来广泛经济效益。
2D Orbit Map
3D Orbit Map
Orbit Altitude Analysis Chart
Orbit Inclination Analysis Chart
Orbit Comprehensive Analysis Chart
View Comprehensive Chart